Weather in Coventry

United Kingdom     52°24′33″N   1°30′12″W
temp.,
°C
wind,
m/s
gust,
m/s
humid.,
%
clouds,
%
prec.,
mm/h
press.,
hPa
HPBL,
m
17 june, thu
thu1701:00+16nw2392100 0.0 100953
04:00+14nw3597100 1.4 1008154
07:00+13nw3696100 1.5 1009183
10:00+13nw4790100 0.0 1011279
13:00+14nnw4684100 0.0 1012350
16:00+15nnw468190 0.0 1013513
19:00+15nnw3688100 0.2 1014283
22:00+14n3794100 0.2 1015209
18 june, fri
fri1801:00+12nw4877100 0.3 1016237
04:00+11nnw4679100 0.2 1016204
07:00+11n3883100 0.5 1016299
10:00+12n4996100 1.3 1016504
13:00+12nne5993100 1.8 1016612
16:00+13nne51090100 0.0 1016553
19:00+12nne3890100 0.0 1016456
22:00+12n3692100 0.0 1017286
19 june, sat
sat1901:00+11nne2489100 0.0 1017146
04:00+9ne2296100 0.0 101723
07:00+12e249193 0.0 1017252
10:00+14ese347981 0.0 1017723
13:00+15ese447893 0.1 1016840
16:00+15ese4784100 0.1 1015650
19:00+15e4788100 0.3 1013555
22:00+13e5109383 0.1 1012460
20 june, sun
sun2001:00+11ene61196100 0.9 1010401
04:00+11ne61297100 4.4 1007507
07:00+11ne91697100 9.8 1005740
10:00+11ne81598100 1.1 1004696
13:00+12ene71397100 1.9 1004678
16:00+12ene5998100 1.6 1005576
19:00+11ne4898100 1.6 1005395
22:00+11nne4799100 0.1 1007355
21 june, mon
mon2101:00+10nne4998100 0.1 1008408
04:00+10nne5998100 0.1 1008402
07:00+10nne51198100 0.8 1008507
10:00+10nne51197100 0.4 1010519
13:00+11nne51096100 1.3 1011638
16:00+11n51096100 1.7 1012574
19:00+11n51195100 2.1 1013586
22:00+11nne51195100 0.2 1014651